Weather History for KCWI - December, 2013

Change the Weather History Date:

Friday, December 27, 2013

  Actual Average Record
Temperature  
Mean Temperature 26 °F -  
Max Temperature 37 °F 30 °F 56 °F (1959)
Min Temperature 14 °F 15 °F -19 °F (1950)
Degree Days  
Heating Degree Days 40    
Moisture  
Dew Point 22 °F    
Average Humidity 79    
Maximum Humidity 93    
Minimum Humidity 65    
Precipitation  
Precipitation 0.00 in - - ()
Sea Level Pressure  
Sea Level Pressure 30.20 in    
Wind  
Wind Speed 4 mph (SW)    
Max Wind Speed 17 mph    
Max Gust Speed -    
Visibility 6 miles    
Events      
Averages and records for this station are not official NWS values.
T = Trace of Precipitation, MM = Missing Value Source: NWS Daily Summary

Daily Weather History Graph

Daily Weather History Graph

Search for Another Location

Airport or City:

Trip Planner

Search our weather history database for the weather conditions in past years. The results will help you decide how hot, cold, wet, or windy it might be!

Date:

Astronomy

Dec. 27, 2013 Rise Set
Actual Time 7:27 AM CST 4:37 PM CST
Civil Twilight 6:56 AM CST 5:08 PM CST
Nautical Twilight 6:21 AM CST 5:44 PM CST
Astronomical Twilight 5:47 AM CST 6:17 PM CST
Moon 1:56 AM CST (12/27) 12:50 PM CST (12/27)
Length of Visible Light 10h 12m
Length of Day
9h 09m
Waning Crescent, 28% of the Moon is Illuminated
Dec 27
Waning Crescent
Jan 1
New
Jan 7
First Quarter
Jan 15
Full
Jan 23
Last Quarter

Hourly Weather History & Observations

Time (CST) Temp. Windchill Dew Point Humidity Pressure Visibility Wind Dir Wind Speed Gust Speed Precip Events Conditions
12:15 AM 24.8 °F - 21.2 °F 86% 30.23 in 5.0 mi Calm Calm - N/A   Mostly Cloudy
12:35 AM 24.8 °F - 21.2 °F 86% 30.23 in 5.0 mi Calm Calm - N/A   Mostly Cloudy
12:55 AM 23.0 °F - 19.4 °F 86% 30.23 in 5.0 mi Calm Calm - N/A   Partly Cloudy
1:15 AM 23.0 °F - 19.4 °F 86% 30.24 in 3.0 mi Calm Calm - N/A   Clear
1:35 AM 21.2 °F - 19.4 °F 93% 30.25 in 2.0 mi Calm Calm - N/A   Clear
1:55 AM 21.2 °F - 19.4 °F 93% 30.25 in 1.5 mi Calm Calm - N/A   Clear
2:15 AM 19.4 °F - 15.8 °F 86% 30.25 in 0.2 mi Calm Calm - N/A   Unknown
2:35 AM 15.8 °F - 10.4 °F 79% 30.24 in 0.2 mi Calm Calm - N/A   Unknown
2:55 AM 14.0 °F - 8.6 °F 79% 30.25 in 0.2 mi Calm Calm - N/A   Unknown
3:15 AM 17.6 °F - 15.8 °F 93% 30.25 in 0.2 mi Calm Calm - N/A   Unknown
3:35 AM 17.6 °F - 15.8 °F 93% 30.25 in 0.2 mi Calm Calm - N/A   Unknown
3:55 AM 15.8 °F - 12.2 °F 86% 30.24 in 0.2 mi Calm Calm - N/A   Unknown
4:15 AM 15.8 °F 10.2 °F 10.4 °F 79% 30.24 in 0.2 mi SSW 3.5 mph - N/A   Unknown
4:35 AM 15.8 °F 10.2 °F 12.2 °F 86% 30.24 in 0.2 mi SSW 3.5 mph - N/A   Unknown
4:55 AM 17.6 °F 9.3 °F 15.8 °F 93% 30.24 in 0.2 mi SSW 5.8 mph - N/A   Unknown
5:15 AM 17.6 °F 10.7 °F 14.0 °F 86% - 0.2 mi SW 4.6 mph - N/A   Unknown
5:35 AM 15.8 °F 8.6 °F 10.4 °F 79% 30.25 in 0.2 mi SW 4.6 mph - N/A   Unknown
5:55 AM 14.0 °F 6.5 °F 10.4 °F 86% 30.26 in 0.2 mi SW 4.6 mph - N/A   Unknown
6:15 AM 17.6 °F 10.7 °F 14.0 °F 86% 30.26 in 0.2 mi SW 4.6 mph - N/A   Unknown
6:35 AM 17.6 °F 9.3 °F 15.8 °F 93% 30.27 in 0.2 mi WSW 5.8 mph - N/A   Unknown
6:55 AM - - - N/A% 30.27 in 0.2 mi WSW 5.8 mph - N/A   Unknown
7:15 AM - - - N/A% 30.27 in 0.2 mi West 3.5 mph - N/A   Unknown
7:35 AM - - - N/A% 30.26 in 0.2 mi Calm Calm - N/A   Unknown
7:55 AM - - - N/A% 30.26 in 0.2 mi West 3.5 mph - N/A   Unknown
8:15 AM - - - N/A% 30.27 in 0.2 mi Calm Calm - N/A   Unknown
8:35 AM - - - N/A% 30.28 in 0.2 mi Calm Calm - N/A   Unknown
8:55 AM - - - N/A% 30.28 in 0.2 mi Calm Calm - N/A   Unknown
9:15 AM - - - N/A% 30.28 in 0.2 mi Calm Calm - N/A   Unknown
9:35 AM - - - N/A% 30.29 in 0.5 mi SW 3.5 mph - N/A   Unknown
9:55 AM - - - N/A% 30.29 in 1.0 mi Calm Calm - N/A   Clear
10:15 AM - - - N/A% 30.29 in 1.2 mi Calm Calm - N/A   Clear
10:35 AM - - - N/A% 30.28 in 4.0 mi SSW 3.5 mph - N/A   Clear
10:55 AM - - - N/A% 30.27 in 5.0 mi SSW 3.5 mph - N/A   Clear
11:15 AM - - - N/A% 30.26 in 8.0 mi SSW 3.5 mph - N/A   Clear
11:35 AM - - - N/A% 30.25 in 9.0 mi SSW 4.6 mph - N/A   Clear
11:55 AM 24.8 °F 20.5 °F 21.2 °F 86% 30.25 in 10.0 mi SW 3.5 mph - N/A   Clear
12:15 PM 24.8 °F 16.9 °F 21.2 °F 86% 30.24 in 8.0 mi SW 6.9 mph - N/A   Clear
12:35 PM 24.8 °F 17.9 °F 23.0 °F 93% 30.23 in 10.0 mi SW 5.8 mph - N/A   Clear
12:55 PM 26.6 °F 21.2 °F 24.8 °F 93% 30.22 in 10.0 mi SW 4.6 mph - N/A   Clear
1:15 PM 26.6 °F 21.2 °F 24.8 °F 93% 30.21 in 10.0 mi SSW 4.6 mph - N/A   Clear
1:35 PM 28.4 °F 23.3 °F 26.6 °F 93% 30.20 in 10.0 mi SSW 4.6 mph - N/A   Clear
1:55 PM 30.2 °F 22.6 °F 26.6 °F 86% 30.19 in 10.0 mi SSW 8.1 mph - N/A   Clear
2:15 PM 30.2 °F 22.6 °F 28.4 °F 93% 30.18 in 10.0 mi SSW 8.1 mph - N/A   Clear
2:35 PM 32.0 °F 24.2 °F 28.4 °F 87% 30.17 in 10.0 mi SSW 9.2 mph - N/A   Clear
2:55 PM 33.8 °F 25.8 °F 28.4 °F 81% 30.16 in 10.0 mi SSW 10.4 mph - N/A   Clear
3:15 PM 35.6 °F 27.5 °F 28.4 °F 75% 30.15 in 10.0 mi South 11.5 mph - N/A   Clear
3:35 PM 35.6 °F 27.1 °F 26.6 °F 70% 30.15 in 10.0 mi SSW 12.7 mph - N/A   Clear
3:55 PM 33.8 °F 25.8 °F 26.6 °F 75% 30.15 in 10.0 mi South 10.4 mph - N/A   Clear
4:15 PM 33.8 °F 25.3 °F 24.8 °F 70% 30.15 in 10.0 mi SSW 11.5 mph - N/A   Clear
4:35 PM 33.8 °F 25.3 °F 24.8 °F 70% 30.14 in 10.0 mi SSW 11.5 mph - N/A   Clear
4:55 PM 32.0 °F 22.1 °F 24.8 °F 75% 30.12 in 10.0 mi SSW 13.8 mph - N/A   Clear
5:15 PM 33.8 °F 25.8 °F 24.8 °F 70% 30.13 in 10.0 mi SSW 10.4 mph - N/A   Clear
5:35 PM 33.8 °F 26.4 °F 24.8 °F 70% 30.12 in 10.0 mi SSW 9.2 mph - N/A   Clear
5:55 PM 33.8 °F 25.8 °F 24.8 °F 70% 30.12 in 10.0 mi SSW 10.4 mph - N/A   Mostly Cloudy
6:15 PM 33.8 °F 25.8 °F 26.6 °F 75% 30.11 in 10.0 mi SSW 10.4 mph - N/A   Scattered Clouds
6:35 PM 35.6 °F 27.1 °F 26.6 °F 70% 30.11 in 10.0 mi SSW 12.7 mph - N/A   Clear
6:55 PM 37.4 °F 30.8 °F 26.6 °F 65% 30.12 in 10.0 mi WSW 9.2 mph - N/A   Clear
7:15 PM 35.6 °F 31.7 °F 26.6 °F 70% 30.13 in 10.0 mi West 4.6 mph - N/A   Clear
7:35 PM 33.8 °F 28.6 °F 24.8 °F 70% 30.12 in 10.0 mi WSW 5.8 mph - N/A   Clear
7:55 PM 33.8 °F 25.8 °F 24.8 °F 70% 30.12 in 10.0 mi WSW 10.4 mph - N/A   Clear
8:15 PM 35.6 °F 26.2 °F 24.8 °F 65% 30.11 in 10.0 mi SW 15.0 mph - N/A   Clear
8:35 PM 35.6 °F 25.9 °F 26.6 °F 70% 30.12 in 10.0 mi WSW 16.1 mph - N/A   Clear
8:55 PM 35.6 °F 26.6 °F 26.6 °F 70% 30.12 in 10.0 mi WSW 13.8 mph - N/A   Clear
9:15 PM 35.6 °F 27.1 °F 26.6 °F 70% 30.12 in 10.0 mi WSW 12.7 mph - N/A   Clear
9:35 PM 35.6 °F 26.6 °F 26.6 °F 70% 30.12 in 10.0 mi WSW 13.8 mph - N/A   Clear
9:55 PM 35.6 °F 27.1 °F 26.6 °F 70% 30.12 in 10.0 mi WSW 12.7 mph - N/A   Clear
10:15 PM 37.4 °F 28.2 °F 26.6 °F 65% 30.11 in 10.0 mi WSW 16.1 mph - N/A   Clear
10:35 PM 37.4 °F 28.2 °F 28.4 °F 70% 30.11 in 10.0 mi WSW 16.1 mph - N/A   Clear
10:55 PM 37.4 °F 27.8 °F 28.4 °F 70% 30.12 in 10.0 mi WSW 17.3 mph - N/A   Clear
11:15 PM 37.4 °F 28.9 °F 28.4 °F 70% 30.12 in 10.0 mi West 13.8 mph - N/A   Clear
11:35 PM 35.6 °F 27.1 °F 26.6 °F 70% 30.13 in 10.0 mi West 12.7 mph - N/A   Clear
11:55 PM 33.8 °F 27.0 °F 26.6 °F 75% 30.13 in 10.0 mi West 8.1 mph - N/A   Clear